EUTELSAT HOTBIRD 13C

Last updated on Tue Oct 15 2024 00:02:38 GMT+0000 (Coordinated Universal Time)

1 33459U 08065A 24288.21229927 -.00000100 00000+0 00000+0 0 9991 2 33459 1.3672 86.0914 0005322 129.3177 231.7913 1.00271483 41215
UTC large
Height (km)
Speed (km/s)
/
Latitude / Longitude
Inclination (degrees)
Orbital Period (minutes)
Azimuth
Elevation
Range (km)
Doppler Factor

Next 0 passes for location: London (51.5072 / 0.1276)

Sorry there are no passes over London.